[[{"header":{"parameterUnit":"m.s-1","parameterCategory":1,"la1":30.2991,"la2":30.254,"lo1":-89.0895,"lo2":-89.0444,"dy":0.0017,"dx":0.0017,"nx":28,"ny":28,"refTime":"2025-03-19T21:00:00:Z","depth":0,"parameterNumber":2,"parameterNumberName":"U-component_of_WINDS"},"data":[0,0,0,0,0,0,0,0,0,0,0,0,0,0,0,0,0,0,0,0,0,0,0,0,0,0,0,0,0,0,0,0,0,0,0,0,0,0,0,0,0,0,0,0,0,0,0,0,0,0,0,0,0,0,0,0,0,0,1.091,1.091,0,1.0906,1.0906,1.0906,1.0902,1.0902,1.0902,1.0902,1.0896,1.0896,1.0896,0,0,0,0,0,0,0,0,0,0,0,0,0,1.0915,1.0915,1.091,1.091,1.091,1.0906,1.0906,1.0906,1.0902,1.0902,1.0902,1.0902,1.0896,1.0896,1.0896,0,0,0,0,0,0,0,0,0,0,0,0,0,1.0912,1.0915,1.091,1.0908,1.0907,1.0906,1.0906,1.0906,1.0902,1.0902,1.0902,1.0902,1.0896,1.0896,1.0896,1.0896,0,0,1.0895,1.0895,0,0,0,0,0,0,0,0,1.0912,1.0912,1.0908,1.0908,1.0908,1.0904,1.0906,1.0903,1.0902,1.0904,1.0902,1.0902,1.0899,1.0898,1.0898,1.0896,1.0896,1.0895,1.0895,1.0895,1.0895,0,0,0,0,0,0,0,1.0913,1.0912,1.0909,1.0908,1.0908,1.0907,1.0906,1.0905,1.0902,1.0904,1.0903,1.0903,1.0899,1.0898,1.0898,1.0896,1.0895,1.0895,1.0895,1.0895,1.0895,1.0895,0,0,0,0,0,0,1.0913,1.0912,1.0909,1.0908,1.091,1.0907,1.0906,1.0905,1.0902,1.0901,1.0903,1.0903,1.0898,1.0898,1.0897,1.0898,1.0895,1.0895,1.0895,1.0895,1.0895,1.0895,0,0,0,0,0,0,1.0913,1.0913,1.0909,1.091,1.091,1.0907,1.0906,1.0905,1.0905,1.0901,1.0901,1.0903,1.0898,1.0898,1.0897,1.0898,1.0895,1.0895,1.0895,1.0895,1.0895,1.0899,0,0,0,0,0,0,1.0914,1.0913,1.0913,1.091,1.091,1.0908,1.0906,1.0905,1.0905,1.0904,1.0901,1.09,1.0898,1.0897,1.0897,1.0898,1.0895,1.0895,1.0895,1.0895,1.0899,1.0899,1.09,0,0,0,0,0,1.0914,1.0914,1.0913,1.0913,1.091,1.0908,1.0908,1.0906,1.0905,1.0905,1.0903,1.09,1.0898,1.0897,1.0897,1.0897,1.0895,1.0895,1.0895,1.0899,1.0899,1.09,0,0,0,0,0,0,1.0916,1.0913,1.0912,1.0912,1.091,1.0908,1.0907,1.0906,1.0905,1.0904,1.0901,1.0901,1.0901,1.0899,1.0898,1.0898,1.0896,1.0896,1.0899,1.09,1.09,1.09,1.0895,0,0,0,0,0,1.0916,1.0916,1.0914,1.0913,1.0913,1.091,1.091,1.0908,1.0907,1.0906,1.0904,1.0902,1.0901,1.09,1.0899,1.0899,1.0899,1.09,1.09,1.0901,1.09,1.0901,1.0901,1.0896,1.0896,1.0896,0,0,1.0917,1.0916,1.0915,1.0913,1.0912,1.0912,1.091,1.0909,1.0909,1.0906,1.0905,1.0904,1.0902,1.0902,1.0901,1.09,1.0902,1.0901,1.0901,1.0901,1.0901,1.0902,1.0902,1.0896,1.0896,1.0896,0,0,1.0918,1.0917,1.0916,1.0916,1.0914,1.0913,1.0913,1.0911,1.091,1.091,1.0908,1.0908,1.0906,1.0905,1.0904,1.0907,1.0905,1.0906,1.0908,1.0909,1.091,1.091,1.0911,1.0911,1.0907,1.0907,1.0907,0,1.0918,1.0918,1.0916,1.0916,1.0916,1.0914,1.0914,1.0913,1.0911,1.0911,1.091,1.0909,1.0907,1.0907,1.0908,1.0908,1.0908,1.0906,1.091,1.091,1.091,1.0911,1.0912,1.0907,1.0907,1.0907,1.0907,0,1.0919,1.0919,1.0919,1.0918,1.0917,1.0917,1.0916,1.0916,1.0915,1.0914,1.0914,1.0913,1.0912,1.0912,1.0911,1.0912,1.0912,1.091,1.0908,1.0911,1.0912,1.0912,1.0907,1.0907,1.0907,1.0907,0,0,1.0919,1.0919,1.0919,1.0919,1.0918,1.0918,1.0918,1.0918,1.0918,1.0917,1.0917,1.0917,1.0916,1.0915,1.0914,1.0915,1.0918,1.0914,1.0914,1.0914,1.092,1.092,1.092,1.0917,1.0917,1.0917,1.092,0,1.092,1.092,1.092,1.092,1.092,1.0919,1.092,1.092,1.0919,1.0919,1.0919,1.0918,1.0917,1.0917,1.0918,1.0917,1.0918,1.0917,1.0917,1.0917,1.0917,1.0921,1.0921,1.0924,1.092,1.092,1.092,0,1.092,1.092,1.0921,1.0921,1.0921,1.0921,1.0921,1.0922,1.0922,1.0921,1.0921,1.0921,1.0921,1.092,1.0921,1.092,1.0921,1.092,1.092,1.092,1.0918,1.092,1.0924,1.0925,1.0921,1.0921,1.0921,0,1.092,1.0921,1.0921,1.0921,1.0922,1.0922,1.0922,1.0922,1.0922,1.0923,1.0923,1.0923,1.0923,1.0924,1.0923,1.0922,1.0925,1.0923,1.0924,1.0924,1.0924,1.0924,1.0928,1.0925,1.0925,1.0925,1.0925,0,1.092,1.0921,1.0921,1.0922,1.0922,1.0922,1.0923,1.0923,1.0924,1.0924,1.0924,1.0924,1.0924,1.0925,1.0925,1.0926,1.0926,1.0926,1.0926,1.0925,1.0925,1.0925,1.0924,1.0925,1.0925,1.0925,1.0925,0,1.092,1.092,1.0921,1.0922,1.0922,1.0923,1.0924,1.0924,1.0924,1.0925,1.0925,1.0926,1.0927,1.0927,1.0928,1.0928,1.0929,1.0929,1.0929,1.0929,1.093,1.093,1.0933,1.0934,1.0931,1.0931,1.0931,0,1.092,1.092,1.0921,1.0922,1.0922,1.0923,1.0924,1.0924,1.0925,1.0926,1.0926,1.0928,1.0928,1.093,1.093,1.0931,1.0931,1.0932,1.0931,1.0931,1.0931,1.093,1.0931,1.0932,1.0932,1.0932,1.0932,0,1.0919,1.092,1.092,1.0922,1.0923,1.0924,1.0924,1.0925,1.0926,1.0927,1.0928,1.0929,1.093,1.0931,1.0933,1.0933,1.0933,1.0933,1.0933,1.0933,1.0932,1.0932,1.0929,1.0932,1.0932,1.0932,1.0932,1.0932,1.0919,1.0919,1.0921,1.0922,1.0923,1.0924,1.0925,1.0926,1.0927,1.0928,1.0929,1.093,1.0932,1.0934,1.0934,1.0936,1.0935,1.0936,1.0936,1.0935,1.0936,1.0933,1.0936,1.0936,1.0936,1.0936,1.0936,0,1.0918,1.0919,1.092,1.0922,1.0923,1.0924,1.0925,1.0926,1.0928,1.0929,1.093,1.0932,1.0934,1.0935,1.0937,1.0938,1.0938,1.0938,1.0938,1.0938,1.0936,1.0935,1.0938,1.0938,1.0938,1.0938,1.0938,1.0938,1.0917,1.0919,1.092,1.0922,1.0923,1.0925,1.0926,1.0927,1.0928,1.0931,1.0932,1.0933,1.0935,1.0937,1.0939,1.0939,1.094,1.094,1.094,1.0938,1.0938,1.0938,1.0937,1.094,1.094,1.0942,1.0942,1.0942]},{"header":{"parameterUnit":"m.s-1","parameterCategory":1,"la1":30.2991,"la2":30.254,"lo1":-89.0895,"lo2":-89.0444,"dy":0.0017,"dx":0.0017,"nx":28,"ny":28,"refTime":"2025-03-19T21:00:00:Z","depth":0,"parameterNumber":3,"parameterNumberName":"V-component_of_WINDS"},"data":[0,0,0,0,0,0,0,0,0,0,0,0,0,0,0,0,0,0,0,0,0,0,0,0,0,0,0,0,0,0,0,0,0,0,0,0,0,0,0,0,0,0,0,0,0,0,0,0,0,0,0,0,0,0,0,0,0,0,-4.8748,-4.875,0,-4.8965,-4.8968,-4.897,-4.8912,-4.8908,-4.8904,-4.89,-4.9121,-4.9131,-4.9141,0,0,0,0,0,0,0,0,0,0,0,0,0,-4.8281,-4.829,-4.8747,-4.875,-4.8753,-4.8965,-4.8968,-4.8971,-4.8913,-4.8908,-4.8903,-4.8898,-4.9118,-4.913,-4.9142,0,0,0,0,0,0,0,0,0,0,0,0,0,-4.849,-4.8293,-4.8747,-4.875,-4.8752,-4.8964,-4.8968,-4.8971,-4.8914,-4.8908,-4.8901,-4.8895,-4.9114,-4.9128,-4.9143,-4.9365,0,0,-4.9189,-4.9195,0,0,0,0,0,0,0,0,-4.8478,-4.8507,-4.8747,-4.875,-4.8753,-4.8905,-4.8884,-4.9103,-4.8916,-4.8853,-4.8899,-4.8892,-4.9054,-4.9074,-4.9129,-4.9376,-4.9385,-4.919,-4.9199,-4.9206,-4.921,0,0,0,0,0,0,0,-4.8464,-4.8497,-4.8833,-4.875,-4.8754,-4.874,-4.8762,-4.8926,-4.8987,-4.8858,-4.8854,-4.8881,-4.9055,-4.9115,-4.9134,-4.9388,-4.919,-4.9203,-4.9212,-4.9218,-4.9828,-4.9835,0,0,0,0,0,0,-4.8447,-4.8486,-4.8827,-4.884,-4.8597,-4.8753,-4.8779,-4.8863,-4.8985,-4.8998,-4.8886,-4.8877,-4.9092,-4.9116,-4.9141,-4.9409,-4.9205,-4.9219,-4.9228,-4.9821,-4.983,-4.9837,0,0,0,0,0,0,-4.8437,-4.8478,-4.8818,-4.8662,-4.8704,-4.8768,-4.8863,-4.887,-4.893,-4.9007,-4.9017,-4.8936,-4.9088,-4.912,-4.931,-4.9416,-4.9226,-4.924,-4.9812,-4.9823,-4.9833,-4.9948,0,0,0,0,0,0,-4.8424,-4.8475,-4.856,-4.8664,-4.8713,-4.8984,-4.887,-4.8879,-4.8956,-4.8947,-4.9056,-4.9068,-4.9086,-4.9288,-4.9325,-4.9433,-4.9251,-4.9803,-4.9817,-4.983,-4.9935,-4.9961,-4.9984,0,0,0,0,0,-4.8407,-4.8583,-4.8565,-4.8606,-4.8821,-4.899,-4.9018,-4.9035,-4.8965,-4.9051,-4.91,-4.9065,-4.9398,-4.9308,-4.9349,-4.9463,-4.9796,-4.9813,-4.9829,-4.9924,-4.9956,-4.9983,0,0,0,0,0,0,-4.849,-4.8597,-4.8578,-4.8793,-4.8883,-4.898,-4.909,-4.9068,-4.918,-4.9166,-4.9181,-4.9207,-4.9401,-4.9451,-4.9348,-4.9685,-4.9587,-4.9612,-4.9645,-4.9676,-4.97,-4.9684,-4.9264,0,0,0,0,0,-4.8533,-4.8662,-4.8748,-4.893,-4.8976,-4.9025,-4.91,-4.9105,-4.9198,-4.9236,-4.9299,-4.9391,-4.9516,-4.9599,-4.9719,-4.9941,-4.9964,-5.004,-5.0064,-5.0084,-5.0106,-5.0227,-5.0262,-4.9891,-4.9891,-4.9891,0,0,-4.8624,-4.8698,-4.8779,-4.8948,-4.9019,-4.9151,-4.9058,-4.9202,-4.9301,-4.9258,-4.9441,-4.9491,-4.9594,-4.9801,-4.9896,-4.9849,-5.0213,-5.0105,-5.012,-5.0132,-5.0248,-5.0283,-5.0314,-4.9902,-4.99,-4.9898,0,0,-4.8857,-4.8926,-4.9085,-4.9157,-4.9265,-4.9297,-4.9335,-4.9436,-4.9467,-4.9651,-4.9622,-4.9739,-4.9955,-5.003,-5.0096,-5.0357,-5.0329,-5.0396,-5.0524,-5.0642,-5.0671,-5.0697,-5.079,-5.0823,-5.0417,-5.0417,-5.0417,0,-4.8956,-4.9155,-4.9169,-4.9317,-4.9392,-4.9359,-4.952,-4.9589,-4.9731,-4.9783,-4.9729,-4.9999,-5.0067,-5.0291,-5.0354,-5.0409,-5.0453,-5.0384,-5.0666,-5.0692,-5.0716,-5.0805,-5.084,-5.0425,-5.0424,-5.0423,-5.0422,0,-4.9272,-4.941,-4.9525,-4.9663,-4.9751,-4.9905,-4.9941,-5.0029,-5.0026,-5.0063,-5.025,-5.033,-5.0465,-5.0519,-5.0517,-5.0743,-5.0711,-5.0661,-5.0564,-5.0759,-5.0843,-5.0877,-5.0435,-5.0433,-5.0431,-5.0429,0,0,-4.9564,-4.9707,-4.9749,-4.9811,-4.9927,-5.0034,-5.0186,-5.0318,-5.0393,-5.0491,-5.0619,-5.0802,-5.0757,-5.0832,-5.0838,-5.0942,-5.1144,-5.088,-5.0882,-5.0926,-5.1397,-5.1434,-5.1474,-5.1125,-5.1131,-5.1137,-5.1389,0,-4.9808,-5.0075,-5.0091,-5.0333,-5.0461,-5.0431,-5.0563,-5.0649,-5.0687,-5.0801,-5.0842,-5.0973,-5.0903,-5.0948,-5.1049,-5.1098,-5.1238,-5.108,-5.1243,-5.1249,-5.1219,-5.1518,-5.1558,-5.1792,-5.1422,-5.1427,-5.1431,0,-5.0128,-5.0236,-5.0491,-5.0589,-5.0643,-5.0761,-5.0884,-5.0993,-5.1089,-5.1109,-5.1194,-5.1185,-5.134,-5.1237,-5.145,-5.1341,-5.1409,-5.1443,-5.1453,-5.1469,-5.1353,-5.1543,-5.1867,-5.1902,-5.1483,-5.1479,-5.1475,0,-5.0316,-5.0525,-5.0705,-5.0759,-5.0877,-5.0961,-5.1014,-5.1103,-5.1182,-5.1289,-5.134,-5.1463,-5.1531,-5.1626,-5.1651,-5.1574,-5.1864,-5.1763,-5.1886,-5.1885,-5.1949,-5.1945,-5.2289,-5.1992,-5.1991,-5.1991,-5.199,0,-5.0587,-5.0744,-5.0791,-5.0901,-5.1076,-5.1093,-5.1266,-5.1313,-5.1393,-5.1512,-5.1493,-5.1605,-5.1631,-5.1748,-5.1768,-5.1942,-5.1972,-5.1993,-5.1997,-5.1996,-5.1993,-5.2041,-5.2025,-5.2,-5.1998,-5.1996,-5.1994,0,-5.0827,-5.0865,-5.1058,-5.1154,-5.1182,-5.1307,-5.1389,-5.1495,-5.153,-5.1681,-5.1717,-5.1773,-5.1909,-5.1944,-5.2106,-5.212,-5.2325,-5.2313,-5.2293,-5.2293,-5.2414,-5.2402,-5.2801,-5.2854,-5.2522,-5.2525,-5.2528,0,-5.0997,-5.1118,-5.1227,-5.1305,-5.1362,-5.1488,-5.1568,-5.1589,-5.1673,-5.1791,-5.1883,-5.2017,-5.2126,-5.2345,-5.24,-5.2524,-5.2515,-5.2646,-5.2534,-5.2528,-5.2518,-5.2511,-5.2523,-5.2668,-5.2672,-5.2674,-5.2677,0,-5.1297,-5.1309,-5.1425,-5.1549,-5.1645,-5.1743,-5.1836,-5.1901,-5.1935,-5.203,-5.217,-5.2254,-5.242,-5.2554,-5.2679,-5.2732,-5.2711,-5.2712,-5.2747,-5.2747,-5.2731,-5.2742,-5.2352,-5.2703,-5.27,-5.2698,-5.2697,-5.2696,-5.1508,-5.1613,-5.1706,-5.1836,-5.1909,-5.1996,-5.2101,-5.2149,-5.2266,-5.2403,-5.2408,-5.256,-5.2652,-5.2817,-5.2878,-5.2997,-5.2957,-5.3008,-5.3021,-5.3033,-5.3044,-5.2711,-5.302,-5.3019,-5.3018,-5.3018,-5.3017,0,-5.1806,-5.1864,-5.1984,-5.2115,-5.2217,-5.2188,-5.229,-5.2377,-5.2511,-5.2599,-5.2706,-5.2866,-5.2995,-5.306,-5.3188,-5.327,-5.3264,-5.3303,-5.3298,-5.3311,-5.3072,-5.3029,-5.3307,-5.3307,-5.3306,-5.3306,-5.3306,-5.3306,-5.1974,-5.215,-5.2174,-5.2386,-5.2443,-5.2592,-5.2653,-5.2733,-5.2803,-5.2983,-5.309,-5.3132,-5.321,-5.3344,-5.3461,-5.3476,-5.3524,-5.357,-5.358,-5.3357,-5.3327,-5.3299,-5.3259,-5.358,-5.358,-5.3809,-5.3811,-5.3812]}]]